Torna al catalogo

STARLINK-31699

AttivoComunicazioniVLEO
NORAD 59551·PAYLOAD·🇺🇸 United States

Lanciato Apr 18, 2024 da Cape Canaveral Space Force Station

Loading…

Prossimi Passaggi (prossime 24 ore)

TLE

AggiornatoSource: CelesTrak SupGP

Epoca: Sep 15, 2026, 02:07 UTC

1 59551C 24074T   26258.08868056  .00025179  00000+0  91181-3 0  2580
2 59551  43.0028 353.7737 0001716 269.4212  26.8380 15.27571391    19

Traccia STARLINK-31699 in tempo reale con AllMySat

Download on the App Store